| time (UTC) | temp F | wind direction | speed MPH | gust MPH | rain 1hr in | rain 24hr in | rain mn in | humidity % | barometer mb |
| 20260507150210 | 53 | 294 | 5.0 | 0.0 | 0.00 | 0.00 | 0.14 | 77 | 1014.7 |
| 20260507143212 | 53 | 347 | 4.0 | 0.0 | 0.00 | 0.00 | 0.14 | 81 | 1014.6 |
| 20260507140210 | 52 | 58 | 0.0 | 0.0 | 0.00 | 0.00 | 0.14 | 84 | 1014.6 |
| 20260507133210 | 51 | 335 | 0.0 | 0.0 | 0.00 | 0.00 | 0.14 | 86 | 1014.8 |
| 20260507130210 | 50 | 98 | 2.0 | 0.0 | 0.00 | 0.00 | 0.14 | 89 | 1014.8 |
| 20260507123210 | 50 | 45 | 1.0 | 0.0 | 0.00 | 0.00 | 0.14 | 86 | 1014.8 |
| 20260507120211 | 50 | 176 | 0.0 | 0.0 | 0.00 | 0.00 | 0.14 | 87 | 1014.6 |
| 20260507113210 | 49 | 355 | 0.0 | 0.0 | 0.00 | 0.00 | 0.14 | 89 | 1014.7 |
| 20260507110210 | 49 | 331 | 1.0 | 0.0 | 0.00 | 0.00 | 0.14 | 91 | 1014.6 |
| 20260507103216 | 48 | 15 | 1.0 | 0.0 | 0.00 | 0.00 | 0.14 | 93 | 1014.5 |
| 20260507100212 | 48 | 355 | 1.0 | 0.0 | 0.00 | 0.00 | 0.13 | 93 | 1014.3 |
| 20260507093210 | 48 | 17 | 1.0 | 0.0 | 0.00 | 0.00 | 0.13 | 94 | 1014.0 |
| 20260507090211 | 47 | 340 | 1.0 | 0.0 | 0.00 | 0.00 | 0.13 | 94 | 1013.7 |
| 20260507083212 | 48 | 347 | 1.0 | 0.0 | 0.00 | 0.00 | 0.12 | 92 | 1013.5 |
| 20260507080211 | 48 | 294 | 2.0 | 0.0 | 0.00 | 0.00 | 0.12 | 90 | 1013.3 |
| 20260507073212 | 48 | 252 | 3.0 | 0.0 | 0.00 | 0.00 | 0.12 | 90 | 1013.1 |
| 20260507070212 | 48 | 309 | 0.0 | 0.0 | 0.00 | 0.00 | 0.11 | 91 | 1013.0 |
| 20260507063211 | 47 | 290 | 4.0 | 0.0 | 0.00 | 0.00 | 0.11 | 92 | 1012.8 |
| 20260507060211 | 46 | 291 | 1.0 | 0.0 | 0.00 | 0.00 | 0.11 | 94 | 1012.6 |
| 20260507053211 | 46 | 199 | 0.0 | 0.0 | 0.00 | 0.00 | 0.11 | 94 | 1012.3 |
| 20260507050213 | 45 | 199 | 0.0 | 0.0 | 0.00 | 0.00 | 0.10 | 94 | 1011.9 |
| 20260507043211 | 44 | 131 | 1.0 | 0.0 | 0.00 | 0.00 | 0.10 | 95 | 1011.6 |
| 20260507040216 | 44 | 101 | 2.0 | 0.0 | 0.00 | 0.00 | 0.08 | 95 | 1011.4 |
| 20260507033211 | 44 | 114 | 0.0 | 0.0 | 0.00 | 0.00 | 0.05 | 95 | 1011.2 |
| 20260507030211 | 44 | 103 | 1.0 | 0.0 | 0.00 | 0.00 | 0.02 | 94 | 1011.1 |
| 20260507023211 | 44 | 132 | 0.0 | 0.0 | 0.00 | 0.00 | 0.02 | 94 | 1011.0 |
| 20260507020211 | 44 | 142 | 2.0 | 0.0 | 0.00 | 0.00 | 0.02 | 94 | 1010.8 |
| 20260507013212 | 43 | 119 | 3.0 | 0.0 | 0.00 | 0.00 | 0.02 | 95 | 1010.6 |
| 20260507010211 | 42 | 91 | 0.0 | 0.0 | 0.00 | 0.00 | 0.02 | 95 | 1010.4 |
| 20260507003209 | 43 | 90 | 0.0 | 0.0 | 0.00 | 0.00 | 0.01 | 95 | 1010.4 |
| 20260507000209 | 43 | 202 | 0.0 | 0.0 | 0.00 | 0.00 | 0.01 | 93 | 1010.1 |
| 20260506233209 | 44 | 250 | 1.0 | 0.0 | 0.00 | 0.00 | 0.01 | 93 | 1010.3 |
| 20260506230209 | 44 | 121 | 0.0 | 0.0 | 0.00 | 0.00 | 0.01 | 94 | 1009.9 |
| 20260506223209 | 45 | 186 | 0.0 | 0.0 | 0.00 | 0.00 | 0.01 | 93 | 1009.9 |
| 20260506220209 | 46 | 171 | 2.0 | 0.0 | 0.00 | 0.00 | 0.00 | 93 | 1010.2 |
| 20260506213209 | 46 | 102 | 3.0 | 0.0 | 0.00 | 0.00 | 0.59 | 94 | 1010.3 |
| 20260506210210 | 46 | 126 | 2.0 | 0.0 | 0.00 | 0.00 | 0.59 | 94 | 1009.9 |
| 20260506203210 | 46 | 111 | 0.0 | 0.0 | 0.00 | 0.00 | 0.58 | 94 | 1009.7 |
| 20260506200210 | 46 | 181 | 0.0 | 0.0 | 0.00 | 0.00 | 0.57 | 93 | 1009.7 |
| 20260506193215 | 47 | 0 | 0.0 | 0.0 | 0.00 | 0.00 | 0.56 | 93 | 1009.1 |
| 20260506190211 | 47 | 154 | 5.0 | 0.0 | 0.00 | 0.00 | 0.55 | 92 | 1008.8 |
| 20260506183209 | 47 | 263 | 2.0 | 0.0 | 0.00 | 0.00 | 0.55 | 92 | 1008.5 |
| 20260506180216 | 47 | 223 | 3.0 | 0.0 | 0.00 | 0.00 | 0.54 | 90 | 1008.2 |
| 20260506173210 | 48 | 246 | 3.0 | 0.0 | 0.00 | 0.00 | 0.53 | 90 | 1007.8 |
| 20260506170215 | 49 | 264 | 8.0 | 0.0 | 0.00 | 0.00 | 0.53 | 90 | 1007.4 |
| 20260506163210 | 49 | 200 | 2.0 | 0.0 | 0.00 | 0.00 | 0.53 | 91 | 1007.4 |
| 20260506160210 | 49 | 169 | 4.0 | 0.0 | 0.00 | 0.00 | 0.52 | 90 | 1007.4 |
| 20260506153210 | 49 | 179 | 4.0 | 0.0 | 0.00 | 0.00 | 0.51 | 90 | 1007.3 |